weather.gov     
National Weather Service

Regional Weather Roundup
NWS Homepage
This page is being discontinued on March 12, 2014.
The same data is available at this site. Please update your bookmarks.
Thank you, and we apologize for the inconvenience.
Please send an email to SR-SRH.Webmaster@noaa.gov with any concerns.


Current Version
Previous Version:    01  02  03  04  05  06  07  08  09  10  11  12  13  14  15  16  17  18  19  20  21  22  23  24  25  26  27  28  29  30  
   31  32  33  34  35  36  37  38  39  40  41  42  43  44  45  46  47  48  49  50  51  52  53  54  55  56  57  58  
[Printable]
813
ASUS45 KABQ 012010
RWRNM
WEATHER ROUNDUP FOR NEW MEXICO
NATIONAL WEATHER SERVICE ALBUQUERQUE NM
200 PM MDT WED OCT 01 2014

NOTE: "FAIR" MEANS FEW OR NO CLOUDS BELOW 12,000 FEET AGL WITH NO
       SIGNIFICANT WEATHER OR OBSTRUCTIONS TO VISION.

      THIS PRODUCT IS RELEASED AS TWO VERSIONS.  ONE VERSION NEAR
      THE TOP OF THE HOUR CONTAINING PRELIMINARY DATA FROM ALBUQUERQUE
      AND OTHER STATIONS.  A FINAL VERSION WITH ADDITIONAL DATA IS
      ISSUED ABOUT 10 MINUTES AFTER THE HOUR.

NMZ501-503-504-510>518-012100-
NORTHWEST PLATEAU/NORTHCENTRAL MOUNTAINS

CITY           SKY/WX    TMP DP  RH WIND       PRES   REMARKS
FARMINGTON     SUNNY     68  36  30 W13G23    29.94F
LOS ALAMOS     PTSUNNY   68  28  22 W6        29.99F
SANTA FE       SUNNY     71  30  21 W12G23    29.96F
TAOS           MOSUNNY   64  30  27 SW16G25   29.98F
ANGEL FIRE     FAIR      60  25  25 SW22G30   30.04F

$$
NMZ402-403-502-505>509-012100-
WESTCENTRAL MOUNTAINS/SOUTHWEST MOUNTAINS

CITY           SKY/WX    TMP DP  RH WIND       PRES   REMARKS
GALLUP         MOSUNNY   66  35  31 W12       30.01F
GRANTS         MOSUNNY   72  28  20 W14G30    30.00F
SILVER CITY    SUNNY     73  30  20 NW16      30.00F

$$
NMZ407-409-411-412-012100-
SOUTHERN DESERTS

CITY           SKY/WX    TMP DP  RH WIND       PRES   REMARKS
LORDSBURG      FAIR      77  32  19 MISG      29.94F
DEMING         SUNNY     79  30  16 W20G26    29.92F
LAS CRUCES     SUNNY     80  26  14 W14G22    29.94F
HOLLOMAN AFB   SUNNY     80  34  19 SE5       29.88F
ALAMOGORDO     SUNNY     81  36  19 W6        29.91F
T OR C         SUNNY     78  32  18 S12       29.90F

$$
NMZ519>523-012100-
CENTRAL VALLEYS/CENTRAL HIGHLANDS

CITY           SKY/WX    TMP DP  RH WIND       PRES   REMARKS
ALBUQUERQUE    MOSUNNY   74  32  21 SW9G20    29.93F
DOUBLE EAGLE   MOSUNNY   73  28  19 SW16G23   29.95F
MORIARTY ARPT  FAIR      73  27  18 W9G18     29.97F
CLINES CORNERS SUNNY     70  28  21 W21G28    29.98F
BELEN          FAIR      74  34  23 E6        29.93F
SOCORRO        FAIR      76  36  23 E8        29.91F

$$
NMZ524>526-539-540-012100-
SOUTHCENTRAL MOUNTAINS

CITY           SKY/WX    TMP DP  RH WIND       PRES   REMARKS
RUIDOSO        NOT AVBL

$$
NMZ527>531-012100-
NORTHEAST HIGHLANDS/NORTHEAST PLAINS

CITY           SKY/WX    TMP DP  RH WIND       PRES   REMARKS
LAS VEGAS      SUNNY     69  30  23 SW28G37   29.95F
RATON          SUNNY     71  29  21 SW16G25   29.87F
CLAYTON        SUNNY     75  30  19 S14G22    29.85F

$$
NMZ532>537-012100-
EASTCENTRAL PLAINS

CITY           SKY/WX    TMP DP  RH WIND       PRES   REMARKS
TUCUMCARI      SUNNY     80  34  19 S3        29.81F
CANNON AFB     SUNNY     80  38  22 SW6G17    29.85F
CLOVIS AIRPORT   N/A     79  41  25 SW8       29.87F

$$
NMZ028-029-538-012100-
SOUTHEAST PLAINS

CITY           SKY/WX    TMP DP  RH WIND       PRES   REMARKS
ROSWELL        SUNNY     81  41  24 VRB7      29.84F
CARLSBAD       SUNNY     85  46  25 VRB3      29.81F
HOBBS          SUNNY     82  41  23 SW9       29.85F


$$




U.S. Dept. of Commerce
NOAA National Weather Service
1325 East West Highway
Silver Spring, MD 20910
E-mail: w-nws.webmaster@noaa.gov
Page last modified: May 16, 2007
NATIONAL WEATHER SERVICE: for Safety, for Work, for Fun - FOR LIFE